TimeCDT,TemperatureF,Dew PointF,Humidity,Sea Level PressureIn,VisibilityMPH,Wind Direction,Wind SpeedMPH,Gust SpeedMPH,PrecipitationIn,Events,Conditions,WindDirDegrees,DateUTC
12:15 AM,35.6,35.6,100,30.36,10.0,SSW,3.5,-,N/A,,Overcast,210,2012-10-06 05:15:00
12:35 AM,35.6,35.6,100,30.36,10.0,SW,4.6,-,N/A,,Overcast,230,2012-10-06 05:35:00
12:55 AM,37.4,35.6,93,30.35,10.0,Calm,Calm,-,N/A,,Overcast,0,2012-10-06 05:55:00
1:15 AM,37.4,35.6,93,30.34,10.0,Calm,Calm,-,N/A,,Overcast,0,2012-10-06 06:15:00
1:35 AM,37.4,37.4,100,30.34,10.0,West,3.5,-,N/A,,Overcast,270,2012-10-06 06:35:00
1:55 AM,37.4,35.6,93,30.33,10.0,Calm,Calm,-,N/A,,Overcast,0,2012-10-06 06:55:00
2:15 AM,37.4,35.6,93,30.32,10.0,NW,3.5,-,N/A,,Overcast,320,2012-10-06 07:15:00
2:35 AM,37.4,35.6,93,30.32,10.0,NNW,3.5,-,N/A,,Overcast,330,2012-10-06 07:35:00
2:55 AM,37.4,35.6,93,30.32,10.0,Calm,Calm,-,N/A,,Overcast,0,2012-10-06 07:55:00
3:15 AM,37.4,35.6,93,30.32,10.0,NNW,3.5,-,N/A,,Overcast,340,2012-10-06 08:15:00
3:55 AM,37.4,35.6,93,30.30,10.0,Calm,Calm,-,N/A,,Overcast,0,2012-10-06 08:55:00
4:35 AM,35.6,35.6,100,30.30,10.0,Calm,Calm,-,N/A,,Overcast,0,2012-10-06 09:35:00
4:55 AM,35.6,35.6,100,30.30,10.0,North,3.5,-,N/A,,Overcast,360,2012-10-06 09:55:00
5:15 AM,35.6,35.6,100,30.31,10.0,Calm,Calm,-,N/A,,Overcast,0,2012-10-06 10:15:00
5:35 AM,37.4,35.6,93,30.31,10.0,North,4.6,-,N/A,,Overcast,10,2012-10-06 10:35:00
5:55 AM,35.6,35.6,100,30.31,10.0,North,3.5,-,N/A,,Overcast,10,2012-10-06 10:55:00
6:15 AM,35.6,35.6,100,30.31,10.0,North,4.6,-,N/A,,Overcast,10,2012-10-06 11:15:00
6:55 AM,35.6,35.6,100,30.32,10.0,North,3.5,-,N/A,,Light Drizzle,10,2012-10-06 11:55:00
7:15 AM,37.4,37.4,100,30.32,10.0,NNE,4.6,-,N/A,Rain,Light Rain,30,2012-10-06 12:15:00
7:35 AM,35.6,35.6,100,30.32,7.0,NNE,5.8,-,N/A,,Drizzle,30,2012-10-06 12:35:00
7:55 AM,35.6,35.6,100,30.32,4.0,NE,6.9,-,N/A,Rain,Light Rain,40,2012-10-06 12:55:00
8:15 AM,33.8,33.8,100,30.32,4.0,ENE,8.1,-,N/A,Rain,Light Rain,60,2012-10-06 13:15:00
8:35 AM,33.8,33.8,100,30.33,3.0,ENE,9.2,-,N/A,Snow,Light Snow,60,2012-10-06 13:35:00
8:55 AM,33.8,33.8,100,30.34,2.0,ENE,9.2,-,N/A,Snow,Light Snow,70,2012-10-06 13:55:00
9:15 AM,33.8,33.8,100,30.34,1.5,ENE,9.2,-,N/A,Snow,Light Snow,70,2012-10-06 14:15:00
9:35 AM,33.8,33.8,100,30.34,1.2,ENE,11.5,-,N/A,Snow,Light Snow,70,2012-10-06 14:35:00
9:55 AM,33.8,33.8,100,30.34,1.5,East,10.4,-,N/A,Snow,Light Snow,80,2012-10-06 14:55:00
10:35 AM,33.8,33.8,100,30.34,1.5,East,13.8,-,N/A,Snow,Light Snow,90,2012-10-06 15:35:00
10:55 AM,33.8,33.8,100,30.35,2.0,East,11.5,-,N/A,Snow,Light Snow,90,2012-10-06 15:55:00
11:15 AM,33.8,33.8,100,30.35,1.8,East,11.5,-,N/A,Snow,Light Snow,80,2012-10-06 16:15:00
11:35 AM,33.8,33.8,100,30.35,4.0,East,12.7,17.3,N/A,Snow,Light Snow,90,2012-10-06 16:35:00
11:55 AM,33.8,33.8,100,30.35,1.8,East,10.4,-,N/A,Snow,Light Snow,100,2012-10-06 16:55:00
12:15 PM,33.8,33.8,100,30.35,2.0,East,9.2,-,N/A,Snow,Light Snow,100,2012-10-06 17:15:00
12:35 PM,33.8,33.8,100,30.36,2.0,East,9.2,-,N/A,Snow,Light Snow,90,2012-10-06 17:35:00
12:55 PM,33.8,33.8,100,30.37,1.0,East,8.1,-,N/A,Snow,Light Snow,80,2012-10-06 17:55:00
1:15 PM,33.8,33.8,100,30.37,1.0,East,10.4,-,N/A,Snow,Light Snow,100,2012-10-06 18:15:00
1:35 PM,32.0,32.0,100,30.36,0.8,East,8.1,-,N/A,Snow,Light Snow,90,2012-10-06 18:35:00
1:55 PM,33.8,33.8,100,30.36,3.0,East,8.1,-,N/A,Snow,Light Snow,80,2012-10-06 18:55:00
2:15 PM,33.8,33.8,100,30.36,7.0,East,10.4,-,N/A,,Overcast,80,2012-10-06 19:15:00
2:35 PM,33.8,33.8,100,30.35,5.0,East,10.4,-,N/A,Snow,Light Snow,90,2012-10-06 19:35:00
2:55 PM,33.8,33.8,100,30.34,5.0,East,9.2,-,N/A,Snow,Light Snow,90,2012-10-06 19:55:00
3:15 PM,33.8,33.8,100,30.34,3.0,East,9.2,-,N/A,Snow,Light Snow,90,2012-10-06 20:15:00
3:35 PM,33.8,33.8,100,30.34,2.0,East,8.1,-,N/A,Snow,Light Snow,100,2012-10-06 20:35:00
3:55 PM,33.8,33.8,100,30.34,2.0,ESE,10.4,-,N/A,Snow,Light Snow,110,2012-10-06 20:55:00
4:15 PM,33.8,33.8,100,30.34,4.0,ESE,10.4,-,N/A,Snow,Light Snow,110,2012-10-06 21:15:00
4:35 PM,35.6,35.6,100,30.34,7.0,East,9.2,-,N/A,Snow,Light Snow,100,2012-10-06 21:35:00
4:55 PM,33.8,33.8,100,30.34,10.0,East,8.1,-,N/A,,Overcast,90,2012-10-06 21:55:00
5:15 PM,35.6,33.8,93,30.34,10.0,East,8.1,-,N/A,,Overcast,90,2012-10-06 22:15:00
5:35 PM,33.8,33.8,100,30.35,7.0,East,6.9,-,N/A,Rain,Light Rain,90,2012-10-06 22:35:00
5:55 PM,33.8,33.8,100,30.35,2.5,ENE,6.9,-,N/A,Snow,Light Snow,60,2012-10-06 22:55:00
6:15 PM,33.8,33.8,100,30.35,5.0,ENE,6.9,-,N/A,Snow,Light Snow,60,2012-10-06 23:15:00
6:35 PM,33.8,33.8,100,30.35,10.0,ENE,3.5,-,N/A,Snow,Light Snow,70,2012-10-06 23:35:00
6:55 PM,33.8,33.8,100,30.35,10.0,ENE,3.5,-,N/A,Snow,Light Snow,60,2012-10-06 23:55:00
7:15 PM,33.8,33.8,100,30.36,10.0,NNE,5.8,-,N/A,,Overcast,30,2012-10-07 00:15:00
7:35 PM,33.8,33.8,100,30.36,10.0,NNE,5.8,-,N/A,,Overcast,30,2012-10-07 00:35:00
7:55 PM,33.8,33.8,100,30.36,10.0,NNE,4.6,-,N/A,,Overcast,30,2012-10-07 00:55:00
8:15 PM,33.8,33.8,100,30.37,10.0,NNE,6.9,-,N/A,,Overcast,20,2012-10-07 01:15:00
8:35 PM,33.8,33.8,100,30.37,10.0,NE,5.8,-,N/A,,Overcast,50,2012-10-07 01:35:00
8:55 PM,33.8,33.8,100,30.37,10.0,NE,3.5,-,N/A,,Overcast,40,2012-10-07 01:55:00
9:15 PM,33.8,33.8,100,30.37,10.0,NNE,3.5,-,N/A,,Overcast,20,2012-10-07 02:15:00
9:35 PM,33.8,33.8,100,30.37,10.0,Calm,Calm,-,N/A,,Overcast,0,2012-10-07 02:35:00
9:55 PM,33.8,33.8,100,30.37,10.0,Calm,Calm,-,N/A,,Overcast,0,2012-10-07 02:55:00
10:15 PM,33.8,33.8,100,30.36,10.0,Calm,Calm,-,N/A,,Overcast,0,2012-10-07 03:15:00
10:35 PM,33.8,33.8,100,30.36,10.0,Calm,Calm,-,N/A,,Overcast,0,2012-10-07 03:35:00
10:55 PM,33.8,33.8,100,30.35,10.0,Calm,Calm,-,N/A,,Overcast,0,2012-10-07 03:55:00
11:15 PM,33.8,33.8,100,30.36,10.0,Calm,Calm,-,N/A,,Overcast,0,2012-10-07 04:15:00
11:55 PM,33.8,33.8,100,30.35,10.0,Calm,Calm,-,N/A,,Overcast,0,2012-10-07 04:55:00